This is the latest recevied weather packets stored in our database for station/object SR9SMR. If no packets are shown the sender has not sent any weather packets the latest 1 day(s).
| Time | Temp. | Humidity | Pressure | Rain* | Wind** | Luminosity | Snow |
|---|---|---|---|---|---|---|---|
| 1778013294 | 13.89° C | 100% | 893.2 hPa | - | 7.6 m/s, 212° | - | - |
| 1778013170 | 13.89° C | 100% | 895.7 hPa | - | 6.71 m/s, 210° | - | - |
| 1778013047 | 13.89° C | 100% | 894.6 hPa | - | 7.15 m/s, 215° | - | - |
| 1778012986 | 13.89° C | 100% | 894.6 hPa | - | 8.05 m/s, 218° | - | - |
| 1778012851 | 13.89° C | 100% | 893 hPa | - | 8.49 m/s, 219° | - | - |
| 1778012790 | 13.89° C | 100% | 892.8 hPa | - | 8.05 m/s, 214° | - | - |
| 1778012727 | 13.89° C | 100% | 892.9 hPa | - | 7.6 m/s, 212° | - | - |
| 1778012604 | 13.89° C | 100% | 896.3 hPa | - | 7.6 m/s, 221° | - | - |
| 1778012480 | 13.89° C | 100% | 893.4 hPa | - | 8.05 m/s, 218° | - | - |
| 1778012357 | 13.89° C | 100% | 897.7 hPa | - | 8.05 m/s, 210° | - | - |
| 1778012234 | 13.89° C | 100% | 893.6 hPa | - | 8.49 m/s, 210° | - | - |
| 1778012173 | 13.89° C | 100% | 893.6 hPa | - | 8.49 m/s, 210° | - | - |
| 1778012039 | 14.44° C | 100% | 894.5 hPa | - | 8.05 m/s, 211° | - | - |
| 1778011927 | 14.44° C | 100% | 896.6 hPa | - | 8.49 m/s, 212° | - | - |
| 1778011791 | 14.44° C | 100% | 893.9 hPa | - | 8.94 m/s, 221° | - | - |
| 1778011731 | 14.44° C | 100% | 893.7 hPa | - | 8.94 m/s, 220° | - | - |
| 1778011668 | 14.44° C | 100% | 893.5 hPa | - | 8.49 m/s, 220° | - | - |
| 1778011544 | 14.44° C | 100% | 893.7 hPa | - | 8.05 m/s, 216° | - | - |
| 1778011419 | 14.44° C | 100% | 896.2 hPa | - | 8.49 m/s, 215° | - | - |
| 1778011297 | 14.44° C | 100% | 894 hPa | - | 8.94 m/s, 215° | - | - |
| 1778011180 | 14.44° C | 100% | 894 hPa | - | 8.49 m/s, 211° | - | - |
| 1778011176 | 14.44° C | 100% | 893.9 hPa | - | 8.49 m/s, 211° | - | - |
| 1778011114 | 14.44° C | 100% | 893.9 hPa | - | 8.49 m/s, 211° | - | - |
| 1778011004 | 14.44° C | 100% | 893.7 hPa | - | 8.05 m/s, 210° | - | - |
| 1778010846 | 14.44° C | 100% | 895.5 hPa | - | 8.49 m/s, 211° | - | - |
* Rain since midnight (hover to see other rain measurements)
** Current wind speed in m/s (hover to see current wind gust speed)